Change the Weather History Date:

Thursday, November 1, 2012

  Actual Average Record
Temperature  
Mean Temperature 43 °F -  
Max Temperature 53 °F 0 °F 73 °F (2000)
Min Temperature 33 °F - 21 °F (2002)
Degree Days  
Heating Degree Days 22    
Moisture  
Dew Point 23 °F    
Average Humidity 49    
Maximum Humidity 75    
Minimum Humidity 32    
Precipitation  
Precipitation 0.00 in - - ()
Sea Level Pressure  
Sea Level Pressure 29.87 in    
Wind  
Wind Speed 10 mph (NW)    
Max Wind Speed 16 mph    
Max Gust Speed 24 mph    
Visibility 10 miles    
Events      
Averages and records for this station are not official NWS values.
T = Trace of Precipitation, MM = Missing Value Source: NWS Daily Summary

Daily Weather History Graph

Daily Weather History Graph

Search for Another Location

Airport or City:

Trip Planner

Search our weather history database for the weather conditions in past years. The results will help you decide how hot, cold, wet, or windy it might be!

Date:

Astronomy

Nov. 01, 2012 Rise Set
Actual Time 7:32 AM CDT 5:50 PM CDT
Civil Twilight 7:03 AM CDT 6:19 PM CDT
Nautical Twilight 6:30 AM CDT 6:53 PM CDT
Astronomical Twilight 5:57 AM CDT 7:25 PM CDT
Moon 7:44 PM CDT (11/1) 10:08 AM CDT (11/1)
Length of Visible Light 11h 16m
Length of Day
10h 17m
Waning Gibbous, 93% of the Moon is Illuminated
Nov 1
Waning Gibbous
Nov 6
Last Quarter
Nov 13
New
Nov 20
First Quarter
Nov 28
Full

Hourly Weather History & Observations

Time (CDT) Temp. Windchill Dew Point Humidity Pressure Visibility Wind Dir Wind Speed Gust Speed Precip Events Conditions
12:15 AM 35.6 °F 27.1 °F 15.8 °F 44% 29.88 in 10.0 mi WNW 12.7 mph - N/A   Clear
12:35 AM 33.8 °F 24.8 °F 15.8 °F 48% 29.88 in 10.0 mi WNW 12.7 mph - N/A   Clear
1:15 AM 35.6 °F 28.0 °F 15.8 °F 44% 29.88 in 10.0 mi NW 10.4 mph - N/A   Clear
1:35 AM 35.6 °F 28.6 °F 15.8 °F 44% 29.88 in 10.0 mi NW 9.2 mph - N/A   Clear
1:55 AM 33.8 °F 25.8 °F 15.8 °F 48% 29.88 in 10.0 mi WNW 10.4 mph - N/A   Clear
2:15 AM 35.6 °F 28.6 °F 15.8 °F 44% 29.88 in 10.0 mi WNW 9.2 mph - N/A   Mostly Cloudy
2:35 AM 35.6 °F 29.2 °F 17.6 °F 48% 29.88 in 10.0 mi West 8.1 mph - N/A   Overcast
2:55 AM 35.6 °F 28.0 °F 17.6 °F 48% 29.87 in 10.0 mi West 10.4 mph - N/A   Overcast
3:15 AM 35.6 °F 27.5 °F 17.6 °F 48% 29.87 in 10.0 mi West 11.5 mph - N/A   Overcast
3:35 AM 35.6 °F 27.5 °F 17.6 °F 48% 29.86 in 10.0 mi West 11.5 mph - N/A   Mostly Cloudy
4:15 AM 33.8 °F 27.0 °F 17.6 °F 52% 29.86 in 10.0 mi West 8.1 mph - N/A   Clear
4:35 AM 33.8 °F 25.8 °F 17.6 °F 52% 29.86 in 10.0 mi West 10.4 mph - N/A   Clear
4:55 AM 35.6 °F 27.1 °F 17.6 °F 48% 29.86 in 10.0 mi West 12.7 mph - N/A   Clear
5:15 AM 35.6 °F 27.1 °F 17.6 °F 48% 29.86 in 10.0 mi West 12.7 mph - N/A   Clear
5:35 AM 35.6 °F 28.0 °F 17.6 °F 48% 29.86 in 10.0 mi West 10.4 mph - N/A   Clear
5:55 AM 35.6 °F 27.1 °F 17.6 °F 48% 29.87 in 10.0 mi WNW 12.7 mph - N/A   Clear
6:15 AM 35.6 °F 28.6 °F 17.6 °F 48% 29.87 in 10.0 mi WNW 9.2 mph - N/A   Clear
6:35 AM 35.6 °F 28.0 °F 17.6 °F 48% 29.86 in 10.0 mi WNW 10.4 mph - N/A   Clear
7:15 AM 35.6 °F 27.5 °F 17.6 °F 48% 29.87 in 10.0 mi WNW 11.5 mph - N/A   Clear
7:35 AM 35.6 °F 27.5 °F 17.6 °F 48% 29.87 in 10.0 mi WNW 11.5 mph - N/A   Scattered Clouds
7:55 AM 35.6 °F 27.5 °F 19.4 °F 52% 29.88 in 10.0 mi WNW 11.5 mph - N/A   Scattered Clouds
8:15 AM 35.6 °F 28.0 °F 19.4 °F 52% 29.88 in 10.0 mi West 10.4 mph - N/A   Mostly Cloudy
8:35 AM 35.6 °F 28.6 °F 19.4 °F 52% 29.88 in 10.0 mi West 9.2 mph - N/A   Mostly Cloudy
8:55 AM 37.4 °F 30.8 °F 19.4 °F 48% 29.89 in 10.0 mi West 9.2 mph - N/A   Overcast
9:15 AM 37.4 °F 30.8 °F 21.2 °F 52% 29.89 in 10.0 mi West 9.2 mph - N/A   Overcast
9:35 AM 41.0 °F 36.4 °F 21.2 °F 45% 29.88 in 10.0 mi WNW 6.9 mph - N/A   Overcast
9:55 AM 41.0 °F 35.8 °F 21.2 °F 45% 29.89 in 10.0 mi West 8.1 mph - N/A   Overcast
10:15 AM 41.0 °F 35.8 °F 21.2 °F 45% 29.89 in 10.0 mi West 8.1 mph - N/A   Overcast
10:35 AM 41.0 °F 36.4 °F 23.0 °F 49% 29.89 in 10.0 mi West 6.9 mph - N/A   Overcast
10:55 AM 42.8 °F 38.6 °F 23.0 °F 46% 29.89 in 10.0 mi West 6.9 mph - N/A   Overcast
11:15 AM 42.8 °F 38.0 °F 23.0 °F 46% 29.89 in 10.0 mi West 8.1 mph - N/A   Overcast
11:35 AM 44.6 °F 41.4 °F 21.2 °F 39% 29.89 in 10.0 mi WNW 5.8 mph - N/A   Overcast
11:55 AM 50.0 °F - 21.2 °F 32% 29.88 in 10.0 mi WNW 8.1 mph - N/A   Mostly Cloudy
12:15 PM 50.0 °F - 21.2 °F 32% 29.86 in 10.0 mi WNW 10.4 mph - N/A   Overcast
12:35 PM 50.0 °F - 23.0 °F 35% 29.85 in 10.0 mi West 9.2 mph - N/A   Scattered Clouds
12:55 PM 51.8 °F - 23.0 °F 33% 29.84 in 10.0 mi WNW 16.1 mph 20.7 mph N/A   Scattered Clouds
1:15 PM 51.8 °F - 24.8 °F 35% 29.83 in 10.0 mi WNW 10.4 mph - N/A   Scattered Clouds
1:35 PM 51.8 °F - 24.8 °F 35% 29.82 in 10.0 mi West 15.0 mph 21.9 mph N/A   Clear
1:55 PM 53.6 °F - 28.4 °F 38% 29.82 in 10.0 mi NW 15.0 mph 21.9 mph N/A   Scattered Clouds
2:15 PM 53.6 °F - 28.4 °F 38% 29.82 in 10.0 mi NW 16.1 mph 21.9 mph N/A   Clear
2:35 PM 53.6 °F - 28.4 °F 38% 29.82 in 10.0 mi NW 12.7 mph 20.7 mph N/A   Clear
3:15 PM 51.8 °F - 28.4 °F 41% 29.82 in 10.0 mi WNW 13.8 mph 24.2 mph N/A   Clear
3:35 PM 53.6 °F - 26.6 °F 35% 29.82 in 10.0 mi NW 13.8 mph 18.4 mph N/A   Clear
3:55 PM 51.8 °F - 26.6 °F 38% 29.82 in 10.0 mi NW 11.5 mph - N/A   Clear
4:15 PM 51.8 °F - 26.6 °F 38% 29.82 in 10.0 mi NW 12.7 mph 19.6 mph N/A   Clear
4:35 PM 51.8 °F - 26.6 °F 38% 29.82 in 10.0 mi NW 11.5 mph - N/A   Clear
4:55 PM 51.8 °F - 26.6 °F 38% 29.83 in 10.0 mi NW 5.8 mph - N/A   Clear
5:15 PM 50.0 °F - 26.6 °F 40% 29.83 in 10.0 mi NNW 9.2 mph - N/A   Clear
5:35 PM 48.2 °F - 26.6 °F 43% 29.83 in 10.0 mi NNW 6.9 mph - N/A   Clear
5:55 PM 46.4 °F 43.5 °F 26.6 °F 46% 29.84 in 10.0 mi NNW 5.8 mph - N/A   Clear
6:15 PM 44.6 °F 40.7 °F 26.6 °F 49% 29.85 in 10.0 mi North 6.9 mph - N/A   Clear
6:35 PM 44.6 °F 39.7 °F 26.6 °F 49% 29.85 in 10.0 mi NNW 9.2 mph - N/A   Clear
6:55 PM 42.8 °F 37.5 °F 28.4 °F 57% 29.86 in 10.0 mi NNW 9.2 mph - N/A   Clear
7:15 PM 42.8 °F 38.0 °F 28.4 °F 57% 29.87 in 10.0 mi NNW 8.1 mph - N/A   Scattered Clouds
7:35 PM 42.8 °F 37.5 °F 28.4 °F 57% 29.88 in 10.0 mi North 9.2 mph 17.3 mph N/A   Overcast
7:55 PM 42.8 °F 37.0 °F 30.2 °F 61% 29.89 in 10.0 mi North 10.4 mph - N/A   Overcast
8:15 PM 42.8 °F 37.0 °F 30.2 °F 61% 29.90 in 10.0 mi North 10.4 mph - N/A   Overcast
8:35 PM 42.8 °F 37.0 °F 28.4 °F 57% 29.90 in 10.0 mi North 10.4 mph 16.1 mph N/A   Mostly Cloudy
8:55 PM 41.0 °F 35.2 °F 28.4 °F 61% 29.90 in 10.0 mi North 9.2 mph - N/A   Scattered Clouds
9:15 PM 41.0 °F 36.4 °F 28.4 °F 61% 29.90 in 10.0 mi NNW 6.9 mph - N/A   Scattered Clouds
9:35 PM 39.2 °F 35.0 °F 28.4 °F 65% 29.91 in 10.0 mi NNW 5.8 mph - N/A   Mostly Cloudy
9:55 PM 41.0 °F 36.4 °F 28.4 °F 61% 29.91 in 10.0 mi NNW 6.9 mph - N/A   Overcast
10:15 PM 41.0 °F 35.2 °F 28.4 °F 61% 29.92 in 10.0 mi NNW 9.2 mph - N/A   Mostly Cloudy
10:35 PM 39.2 °F 33.6 °F 28.4 °F 65% 29.92 in 10.0 mi NNW 8.1 mph - N/A   Scattered Clouds
10:55 PM 37.4 °F 31.4 °F 28.4 °F 70% 29.93 in 10.0 mi NNW 8.1 mph - N/A   Clear
11:15 PM 37.4 °F 32.1 °F 28.4 °F 70% 29.93 in 10.0 mi NNW 6.9 mph - N/A   Clear
11:35 PM 37.4 °F 31.4 °F 28.4 °F 70% 29.93 in 10.0 mi NNW 8.1 mph - N/A   Clear
11:55 PM 35.6 °F 28.0 °F 28.4 °F 75% 29.94 in 10.0 mi North 10.4 mph - N/A   Clear